KF5KUW Weather Reports


time (UTC)temp
C
wind
direction
speed
KPH
gust
KPH
rain 1hr
cm
rain 24hr
cm
rain mn
cm
humidity
%
barometer
mb
20260505163319 24 167 0.0 1.6 0.00 0.00 0.00 83 1005.9
20260505161833 25 158 0.0 12.9 0.00 0.00 0.00 84 1005.6
20260505160322 24 173 0.0 9.7 0.00 0.00 0.00 84 1005.5
20260505153337 23 157 1.6 11.3 0.00 0.00 0.00 85 1005.5
20260505151842 23 175 0.0 19.3 0.00 0.00 0.00 86 1005.5
20260505150357 23 159 0.0 1.6 0.00 0.00 0.00 86 1005.6
20260505140419 22 164 0.0 19.3 0.00 0.00 0.00 89 1005.2
20260505054836 21 154 0.0 1.6 0.00 0.00 0.00 84 1006.3
20260505053325 21 159 0.0 1.6 0.00 0.00 0.00 83 1006.5
20260505051840 21 154 0.0 1.6 0.00 0.00 0.00 84 1006.5
20260505050353 21 130 0.0 0.0 0.00 0.00 0.00 83 1006.6
20260505040322 21 133 0.0 0.0 0.00 0.00 0.00 81 1007.1
20260505034820 21 146 0.0 0.0 0.00 0.00 0.00 81 1007.1
20260505033336 21 145 0.0 0.0 0.00 0.00 0.00 81 1007.3
20260505031829 22 150 0.0 0.0 0.00 0.00 0.00 80 1007.1
20260505030326 22 158 0.0 0.0 0.00 0.00 0.00 80 1007.2
20260505024820 22 151 0.0 0.0 0.00 0.00 0.00 79 1007.1
20260505023335 22 161 0.0 0.0 0.00 0.00 0.00 79 1007.4
20260505021850 22 163 0.0 0.0 0.00 0.00 0.00 78 1007.1
20260505020328 22 142 0.0 0.0 0.00 0.00 0.00 77 1007.1
20260505014821 22 144 0.0 0.0 0.00 0.00 0.00 76 1006.9
20260505013327 23 139 0.0 0.0 0.00 0.00 0.00 75 1006.7
20260505011833 23 153 0.0 1.6 0.00 0.00 0.00 74 1006.7
20260505010323 23 138 0.0 0.0 0.00 0.00 0.00 74 1006.9
20260505004835 23 145 0.0 0.0 0.00 0.00 0.00 74 1006.7
20260505003341 23 171 0.0 0.0 0.00 0.00 0.00 73 1007.0
20260505001826 24 139 0.0 1.6 0.00 0.00 0.00 71 1006.8
20260505000339 24 146 0.0 1.6 0.00 0.00 0.00 71 1006.9
20260504234832 25 142 0.0 0.0 0.00 0.00 0.00 69 1007.1
20260504233327 25 139 0.0 1.6 0.00 0.00 0.00 68 1007.1
20260504231819 25 150 0.0 1.6 0.00 0.00 0.00 66 1007.4
20260504230330 25 147 0.0 1.6 0.00 0.00 0.00 65 1007.5
20260504224839 25 163 1.6 17.7 0.00 0.00 0.00 66 1007.6
20260504223346 25 178 0.0 0.0 0.00 0.00 0.00 65 1007.5
20260504221837 25 147 0.0 0.0 0.00 0.00 0.00 64 1007.7
20260504220327 25 122 0.0 0.0 0.00 0.00 0.00 62 1008.1
20260504214840 26 154 3.2 37.0 0.00 0.00 0.00 61 1008.2
20260504213352 26 150 3.2 25.7 0.00 0.00 0.00 62 1008.5
20260504211825 26 157 0.0 1.6 0.00 0.00 0.00 61 1008.8
20260504193347 25 150 0.0 1.6 0.00 0.00 0.00 60 1010.6
20260504191853 25 143 1.6 19.3 0.00 0.00 0.00 59 1011.0
20260504190320 25 136 0.0 1.6 0.00 0.00 0.00 60 1011.0
20260504184829 25 148 1.6 22.5 0.00 0.00 0.00 60 1011.3
20260504183338 24 159 1.6 27.4 0.00 0.00 0.00 62 1011.5
20260504181844 25 148 3.2 17.7 0.00 0.00 0.00 60 1011.8
20260504180331 24 143 4.8 19.3 0.00 0.00 0.00 61 1011.9
20260504174837 24 141 1.6 9.7 0.00 0.00 0.00 59 1012.3